THORAD DELTA 1 DEB, 14880

Orbit data source: Space-Track

THORAD DELTA 1 DEB, 14880 is space debris in SSO originally from a launch on Fri, 15 Nov 1974 UTC launched from the Air Force Western Test Range (AFWTR). Debris objects in space refer to the collection of defunct objects orbiting the Earth. Examples of debris include non-operational satellites, rocket bodies, and fragments generated from explosions, collisions, or faulty payload assembly.

Loading next visibility...
Identifier
14880, 1974-089ET
Orbit
SSO
Country
Flag of USUS
Related business
Manufacturer
Unknown
Mission
Spacecraft
Bus & Motor
Unknown
Mass
Unknown
Launch date (UTC)
1974-11-15 (51 years ago)
Launch vehicle
Unknown
Launch site
Air Force Western Test Range (AFWTR)
Object type
Payload
Rocket body
Debris
Shape & HBR
Unknown shape, 0.1 m
Radar Cross Section
Small (<0.1 m²)

Expand to show TLE details & history
Last TLE update: 23 hours ago

TLE from 23 hours ago
0 THORAD DELTA 1 DEB
1 14880U 74089ET  25287.81261720  .00000042  00000-0  65083-3 0  9991
2 14880 101.1946 240.1061 0153060 126.4929 264.4724 12.30520374979211
Epoch: 2025-10-14T19:30Z
TLE epoch observation values (Epoch: 2025-10-14T19:30:10.126Z)
Latitude
28.65795°
Longitude
-82.21091°
Altitude
1,563.822 km
Speed
7.082 km/s
True Right ascension
15h 35m 42s
True Declination
28° 31' 41"
Sunlit
Object was in daylight at epoch
Visualization orbit readout
Latitude
Unknown
Longitude
Unknown
Altitude
Unknown
Speed
Unknown
Apparent Right ascension
Unknown
Apparent Declination
Unknown
Sunlit
N/A
Visualization observer readout
Local Sidereal Time
12:59:52
Azimuth
Unknown
Elevation
Unknown
Doppler factor
Unknown
Orbital elements
Apogee altitude
1,665.851 km
Perigee altitude
1,423.321 km
Semi-major axis
7,922.723 km
Eccentricity
0.01531
Inclination
101.1946°
RAAN
240.1061°
Arg. of periapsis
126.4929°
True anomaly
262.7301°
Mean anomaly
264.4724°
Eccentric anomaly
263.60089°
Mean motion
3.07774 °/min
Orbital period
116.97 mins
BSTAR
0.00065083
Loading maneuver chart data...
Computing Atmospheric mass density...

Documentation

Showing up to 5 results
|